Time,TemperatureF,DewpointF,PressureIn,WindDirection,WindDirectionDegrees,WindSpeedMPH,WindSpeedGustMPH,Humidity,HourlyPrecipIn,Conditions,Clouds,dailyrainin,SoftwareType,DateUTC
2013-05-28 00:05:00,55.3,53.9,29.75,East,85,3.0,4.0,95,0.00,,,0.00,Wunderground v.1.15,2013-05-28 05:05:00,
2013-05-28 00:10:00,55.4,53.7,29.75,ESE,119,3.0,6.0,94,0.00,,,0.00,Wunderground v.1.15,2013-05-28 05:10:00,
2013-05-28 00:20:00,55.4,53.7,29.74,East,95,5.0,6.0,94,0.00,,,0.00,Wunderground v.1.15,2013-05-28 05:20:00,
2013-05-28 00:30:00,55.4,53.7,29.74,SE,126,3.0,3.0,94,0.00,,,0.00,Wunderground v.1.15,2013-05-28 05:30:00,
2013-05-28 00:40:00,55.4,53.4,29.74,ESE,114,4.0,6.0,93,0.00,,,0.00,Wunderground v.1.15,2013-05-28 05:40:00,
2013-05-28 00:50:00,55.3,53.3,29.73,SE,138,5.0,5.0,93,0.00,,,0.00,Wunderground v.1.15,2013-05-28 05:50:00,
2013-05-28 01:00:00,55.3,53.6,29.73,East,100,3.0,4.0,94,0.00,,,0.00,Wunderground v.1.15,2013-05-28 06:00:00,
2013-05-28 01:10:00,55.1,53.4,29.73,ESE,110,4.0,4.0,94,0.00,,,0.00,Wunderground v.1.15,2013-05-28 06:10:00,
2013-05-28 01:15:00,55.1,53.4,29.71,ESE,116,4.0,4.0,94,0.00,,,0.00,Wunderground v.1.15,2013-05-28 06:15:00,
2013-05-28 01:25:00,55.1,53.4,29.71,SE,128,3.0,3.0,94,0.00,,,0.00,Wunderground v.1.15,2013-05-28 06:25:00,
2013-05-28 01:35:00,55.1,53.4,29.71,East,99,3.0,6.0,94,0.00,,,0.00,Wunderground v.1.15,2013-05-28 06:35:00,
2013-05-28 01:40:00,55.1,53.4,29.71,ESE,119,2.0,2.0,94,0.00,,,0.00,Wunderground v.1.15,2013-05-28 06:40:00,
2013-05-28 01:50:00,55.1,53.7,29.73,SSE,162,3.0,3.0,95,0.00,,,0.00,Wunderground v.1.15,2013-05-28 06:50:00,
2013-05-28 01:55:00,55.1,53.7,29.73,SE,145,2.0,3.0,95,0.00,,,0.00,Wunderground v.1.15,2013-05-28 06:55:00,
2013-05-28 02:05:00,55.1,53.7,29.72,SSE,157,2.0,4.0,95,0.00,,,0.00,Wunderground v.1.15,2013-05-28 07:05:00,
2013-05-28 02:15:00,55.0,53.6,29.71,East,96,3.0,4.0,95,0.00,,,0.00,Wunderground v.1.15,2013-05-28 07:15:00,
2013-05-28 02:25:00,55.0,53.6,29.71,ENE,78,1.0,2.0,95,0.00,,,0.00,Wunderground v.1.15,2013-05-28 07:25:00,
2013-05-28 02:35:00,55.0,53.6,29.71,ESE,113,1.0,1.0,95,0.00,,,0.00,Wunderground v.1.15,2013-05-28 07:35:00,
2013-05-28 02:45:00,55.0,53.6,29.72,SSE,151,0.0,0.0,95,0.00,,,0.00,Wunderground v.1.15,2013-05-28 07:45:00,
2013-05-28 02:55:00,55.0,53.6,29.72,ESE,107,1.0,1.0,95,0.00,,,0.00,Wunderground v.1.15,2013-05-28 07:55:00,
2013-05-28 03:05:00,55.0,53.6,29.71,ESE,102,0.0,0.0,95,0.00,,,0.00,Wunderground v.1.15,2013-05-28 08:05:00,
2013-05-28 03:10:00,55.0,53.6,29.71,East,83,1.0,1.0,95,0.00,,,0.00,Wunderground v.1.15,2013-05-28 08:10:00,
2013-05-28 03:15:00,55.0,53.6,29.70,East,79,2.0,2.0,95,0.00,,,0.00,Wunderground v.1.15,2013-05-28 08:15:00,
2013-05-28 03:25:00,55.0,53.6,29.70,East,95,1.0,2.0,95,0.00,,,0.00,Wunderground v.1.15,2013-05-28 08:25:00,
2013-05-28 03:35:00,55.0,53.6,29.70,East,83,1.0,1.0,95,0.00,,,0.00,Wunderground v.1.15,2013-05-28 08:35:00,
2013-05-28 03:40:00,54.8,53.4,29.70,ENE,73,1.0,4.0,95,0.00,,,0.00,Wunderground v.1.15,2013-05-28 08:40:00,
2013-05-28 03:50:00,54.8,53.7,29.69,East,99,1.0,4.0,96,0.00,,,0.00,Wunderground v.1.15,2013-05-28 08:50:00,
2013-05-28 04:00:00,54.8,53.7,29.69,East,80,1.0,1.0,96,0.00,,,0.00,Wunderground v.1.15,2013-05-28 09:00:00,
2013-05-28 04:10:00,54.8,53.7,29.69,East,80,0.0,0.0,96,0.00,,,0.00,Wunderground v.1.15,2013-05-28 09:10:00,
2013-05-28 04:20:00,54.8,53.7,29.69,East,80,0.0,2.0,96,0.00,,,0.00,Wunderground v.1.15,2013-05-28 09:20:00,
2013-05-28 04:30:00,54.7,53.6,29.69,East,79,0.0,0.0,96,0.00,,,0.00,Wunderground v.1.15,2013-05-28 09:30:00,
2013-05-28 04:40:00,54.7,53.9,29.69,ENE,78,0.0,0.0,97,0.00,,,0.00,Wunderground v.1.15,2013-05-28 09:40:00,
2013-05-28 04:50:00,54.5,53.7,29.68,East,88,1.0,2.0,97,0.00,,,0.00,Wunderground v.1.15,2013-05-28 09:50:00,
2013-05-28 04:55:00,54.5,53.7,29.68,East,89,2.0,2.0,97,0.00,,,0.00,Wunderground v.1.15,2013-05-28 09:55:00,
2013-05-28 05:05:00,54.5,53.9,29.67,East,97,2.0,3.0,98,0.00,,,0.00,Wunderground v.1.15,2013-05-28 10:05:00,
2013-05-28 05:15:00,54.4,53.8,29.67,East,93,3.0,3.0,98,0.00,,,0.00,Wunderground v.1.15,2013-05-28 10:15:00,
2013-05-28 05:25:00,54.2,53.6,29.67,ESE,110,3.0,4.0,98,0.00,,,0.00,Wunderground v.1.15,2013-05-28 10:25:00,
2013-05-28 05:35:00,54.2,53.9,29.67,East,85,3.0,6.0,99,0.00,,,0.00,Wunderground v.1.15,2013-05-28 10:35:00,
2013-05-28 05:45:00,54.1,53.8,29.67,East,80,4.0,4.0,99,0.00,,,0.00,Wunderground v.1.15,2013-05-28 10:45:00,
2013-05-28 05:55:00,53.9,53.6,29.67,SE,124,1.0,2.0,99,0.00,,,0.00,Wunderground v.1.15,2013-05-28 10:55:00,
2013-05-28 06:00:00,53.9,53.6,29.67,ESE,109,2.0,2.0,99,0.00,,,0.00,Wunderground v.1.15,2013-05-28 11:00:00,
2013-05-28 06:10:00,53.9,53.9,29.67,SSE,152,3.0,3.0,100,0.00,,,0.00,Wunderground v.1.15,2013-05-28 11:10:00,
2013-05-28 06:15:00,53.8,53.8,29.60,ENE,72,3.0,9.0,100,0.00,,,0.00,Wunderground v.1.15,2013-05-28 11:15:00,
2013-05-28 06:25:00,53.9,53.9,29.60,East,96,2.0,6.0,100,0.00,,,0.00,Wunderground v.1.15,2013-05-28 11:25:00,
2013-05-28 06:30:00,53.9,53.9,29.66,East,97,1.0,2.0,100,0.00,,,0.00,Wunderground v.1.15,2013-05-28 11:30:00,
2013-05-28 06:40:00,53.8,53.8,29.66,East,95,2.0,2.0,100,0.00,,,0.00,Wunderground v.1.15,2013-05-28 11:40:00,
2013-05-28 06:50:00,53.8,53.8,29.66,SSE,151,2.0,6.0,100,0.00,,,0.00,Wunderground v.1.15,2013-05-28 11:50:00,
2013-05-28 07:00:00,53.8,53.8,29.66,East,86,2.0,2.0,100,0.00,,,0.00,Wunderground v.1.15,2013-05-28 12:00:00,
2013-05-28 07:10:00,53.6,53.6,29.66,East,92,1.0,1.0,100,0.00,,,0.00,Wunderground v.1.15,2013-05-28 12:10:00,
2013-05-28 07:20:00,53.6,53.6,29.65,East,86,1.0,1.0,100,0.00,,,0.00,Wunderground v.1.15,2013-05-28 12:20:00,
2013-05-28 07:25:00,53.6,53.6,29.65,East,85,1.0,1.0,100,0.00,,,0.00,Wunderground v.1.15,2013-05-28 12:25:00,
2013-05-28 07:30:00,53.6,53.6,29.65,East,79,1.0,1.0,100,0.00,,,0.00,Wunderground v.1.15,2013-05-28 12:30:00,
2013-05-28 07:40:00,53.6,53.6,29.65,East,89,1.0,1.0,100,0.00,,,0.00,Wunderground v.1.15,2013-05-28 12:40:00,
2013-05-28 07:45:00,53.5,53.5,29.65,East,90,1.0,10.0,100,0.00,,,0.00,Wunderground v.1.15,2013-05-28 12:45:00,
2013-05-28 07:55:00,53.6,53.6,29.65,East,86,3.0,6.0,100,0.00,,,0.00,Wunderground v.1.15,2013-05-28 12:55:00,
2013-05-28 08:05:00,53.8,53.8,29.64,East,85,3.0,6.0,100,0.00,,,0.00,Wunderground v.1.15,2013-05-28 13:05:00,
2013-05-28 08:10:00,53.8,53.8,29.64,East,90,4.0,4.0,100,0.00,,,0.00,Wunderground v.1.15,2013-05-28 13:10:00,
2013-05-28 08:15:00,53.8,53.8,29.65,ESE,102,3.0,4.0,100,0.00,,,0.00,Wunderground v.1.15,2013-05-28 13:15:00,
2013-05-28 08:25:00,53.8,53.8,29.65,East,100,2.0,4.0,100,0.00,,,0.00,Wunderground v.1.15,2013-05-28 13:25:00,
2013-05-28 08:35:00,53.8,53.8,29.66,ESE,110,1.0,2.0,100,0.00,,,0.00,Wunderground v.1.15,2013-05-28 13:35:00,
2013-05-28 08:40:00,53.8,53.8,29.66,SSE,162,1.0,1.0,100,0.00,,,0.00,Wunderground v.1.15,2013-05-28 13:40:00,
2013-05-28 08:50:00,53.8,53.8,29.66,East,99,2.0,2.0,100,0.00,,,0.00,Wunderground v.1.15,2013-05-28 13:50:00,
2013-05-28 09:00:00,53.9,53.9,29.65,East,92,1.0,4.0,100,0.00,,,0.00,Wunderground v.1.15,2013-05-28 14:00:00,
2013-05-28 09:10:00,54.1,54.1,29.65,East,97,4.0,6.0,100,0.00,,,0.00,Wunderground v.1.15,2013-05-28 14:10:00,
2013-05-28 09:20:00,54.2,54.2,29.65,ESE,114,3.0,7.0,100,0.00,,,0.00,Wunderground v.1.15,2013-05-28 14:20:00,
2013-05-28 09:30:00,54.1,54.1,29.66,East,96,4.0,6.0,100,0.00,,,0.00,Wunderground v.1.15,2013-05-28 14:30:00,
2013-05-28 09:40:00,54.2,54.2,29.66,ESE,102,4.0,4.0,100,0.00,,,0.00,Wunderground v.1.15,2013-05-28 14:40:00,
2013-05-28 09:45:00,54.4,54.4,29.65,East,93,3.0,4.0,100,0.00,,,0.00,Wunderground v.1.15,2013-05-28 14:45:00,
2013-05-28 09:55:00,54.5,54.5,29.65,ESE,112,3.0,3.0,100,0.00,,,0.00,Wunderground v.1.15,2013-05-28 14:55:00,
2013-05-28 10:00:00,54.5,54.5,29.65,ESE,121,2.0,2.0,100,0.00,,,0.00,Wunderground v.1.15,2013-05-28 15:00:00,
2013-05-28 10:10:00,54.7,54.7,29.65,East,99,2.0,7.0,100,0.00,,,0.00,Wunderground v.1.15,2013-05-28 15:10:00,
2013-05-28 10:15:00,54.7,54.7,29.64,East,83,4.0,7.0,100,0.00,,,0.00,Wunderground v.1.15,2013-05-28 15:15:00,
2013-05-28 10:25:00,54.7,54.7,29.64,East,93,4.0,5.0,100,0.00,,,0.00,Wunderground v.1.15,2013-05-28 15:25:00,
2013-05-28 10:35:00,55.3,55.3,29.64,East,83,2.0,7.0,100,0.00,,,0.00,Wunderground v.1.15,2013-05-28 15:35:00,
2013-05-28 10:45:00,55.6,55.6,29.65,East,85,1.0,2.0,100,0.00,,,0.00,Wunderground v.1.15,2013-05-28 15:45:00,
2013-05-28 10:55:00,55.9,55.6,29.65,East,85,0.0,0.0,99,0.00,,,0.00,Wunderground v.1.15,2013-05-28 15:55:00,
2013-05-28 11:05:00,56.0,55.4,29.67,East,85,0.0,0.0,98,0.00,,,0.00,Wunderground v.1.15,2013-05-28 16:05:00,
2013-05-28 11:15:00,56.0,55.2,29.69,East,85,0.0,0.0,97,0.00,,,0.00,Wunderground v.1.15,2013-05-28 16:15:00,
2013-05-28 11:25:00,55.9,54.8,29.69,East,88,0.0,0.0,96,0.00,,,0.00,Wunderground v.1.15,2013-05-28 16:25:00,
2013-05-28 11:30:00,55.7,54.6,29.69,ESE,104,0.0,0.0,96,0.00,,,0.00,Wunderground v.1.15,2013-05-28 16:30:00,
2013-05-28 11:40:00,55.7,54.6,29.69,ESE,120,0.0,0.0,96,0.00,,,0.00,Wunderground v.1.15,2013-05-28 16:40:00,
2013-05-28 11:50:00,55.7,54.3,29.69,ESE,120,0.0,0.0,95,0.00,,,0.00,Wunderground v.1.15,2013-05-28 16:50:00,
2013-05-28 12:00:00,55.9,54.5,29.69,ESE,120,0.0,0.0,95,0.00,,,0.00,Wunderground v.1.15,2013-05-28 17:00:00,
2013-05-28 12:10:00,56.0,54.3,29.69,ESE,120,0.0,0.0,94,0.00,,,0.00,Wunderground v.1.15,2013-05-28 17:10:00,
2013-05-28 12:20:00,55.9,53.9,29.69,ESE,120,0.0,0.0,93,0.00,,,0.00,Wunderground v.1.15,2013-05-28 17:20:00,
2013-05-28 12:25:00,55.7,54.0,29.69,ESE,120,0.0,0.0,94,0.00,,,0.00,Wunderground v.1.15,2013-05-28 17:25:00,
2013-05-28 12:30:00,55.7,54.0,29.68,ESE,120,0.0,0.0,94,0.00,,,0.00,Wunderground v.1.15,2013-05-28 17:30:00,
2013-05-28 12:40:00,55.9,54.2,29.68,ESE,120,0.0,0.0,94,0.00,,,0.00,Wunderground v.1.15,2013-05-28 17:40:00,
2013-05-28 12:45:00,55.9,53.9,29.68,ESE,120,0.0,0.0,93,0.00,,,0.00,Wunderground v.1.15,2013-05-28 17:45:00,
2013-05-28 12:55:00,55.9,53.9,29.68,ESE,120,0.0,0.0,93,0.00,,,0.00,Wunderground v.1.15,2013-05-28 17:55:00,
2013-05-28 13:05:00,55.9,53.9,29.68,ESE,120,0.0,0.0,93,0.00,,,0.00,Wunderground v.1.15,2013-05-28 18:05:00,
2013-05-28 13:15:00,56.2,54.2,29.68,ESE,120,0.0,0.0,93,0.00,,,0.00,Wunderground v.1.15,2013-05-28 18:15:00,
2013-05-28 13:25:00,56.5,54.2,29.68,ESE,120,0.0,0.0,92,0.00,,,0.00,Wunderground v.1.15,2013-05-28 18:25:00,
2013-05-28 13:35:00,56.6,54.3,29.67,ESE,120,0.0,0.0,92,0.00,,,0.00,Wunderground v.1.15,2013-05-28 18:35:00,
2013-05-28 13:40:00,56.6,54.3,29.67,ESE,120,0.0,0.0,92,0.00,,,0.00,Wunderground v.1.15,2013-05-28 18:40:00,
2013-05-28 13:45:00,56.7,54.1,29.67,ESE,120,0.0,0.0,91,0.00,,,0.00,Wunderground v.1.15,2013-05-28 18:45:00,
2013-05-28 13:55:00,56.9,54.3,29.67,ESE,120,0.0,0.0,91,0.00,,,0.00,Wunderground v.1.15,2013-05-28 18:55:00,
2013-05-28 14:05:00,57.0,54.1,29.67,ESE,120,0.0,0.0,90,0.00,,,0.00,Wunderground v.1.15,2013-05-28 19:05:00,
2013-05-28 14:10:00,57.0,54.1,29.67,ESE,120,0.0,0.0,90,0.00,,,0.00,Wunderground v.1.15,2013-05-28 19:10:00,
2013-05-28 14:20:00,57.2,54.3,29.67,ESE,120,0.0,0.0,90,0.00,,,0.00,Wunderground v.1.15,2013-05-28 19:20:00,
2013-05-28 14:30:00,57.3,54.1,29.68,ESE,120,0.0,0.0,89,0.00,,,0.00,Wunderground v.1.15,2013-05-28 19:30:00,
2013-05-28 14:40:00,57.6,54.4,29.68,ESE,120,0.0,0.0,89,0.00,,,0.00,Wunderground v.1.15,2013-05-28 19:40:00,
2013-05-28 14:45:00,57.6,54.4,29.68,ESE,120,0.0,0.0,89,0.00,,,0.00,Wunderground v.1.15,2013-05-28 19:45:00,
2013-05-28 14:55:00,57.8,54.3,29.68,ESE,120,0.0,0.0,88,0.00,,,0.00,Wunderground v.1.15,2013-05-28 19:55:00,
2013-05-28 15:00:00,57.8,54.6,29.68,ESE,120,0.0,0.0,89,0.00,,,0.00,Wunderground v.1.15,2013-05-28 20:00:00,
2013-05-28 15:10:00,57.8,54.6,29.68,ESE,120,0.0,0.0,89,0.00,,,0.00,Wunderground v.1.15,2013-05-28 20:10:00,
2013-05-28 15:15:00,57.8,54.6,29.68,ESE,120,0.0,0.0,89,0.00,,,0.00,Wunderground v.1.15,2013-05-28 20:15:00,
2013-05-28 15:25:00,57.6,54.4,29.68,ESE,121,0.0,0.0,89,0.00,,,0.00,Wunderground v.1.15,2013-05-28 20:25:00,
2013-05-28 15:35:00,57.8,54.6,29.68,ESE,121,0.0,0.0,89,0.00,,,0.00,Wunderground v.1.15,2013-05-28 20:35:00,
2013-05-28 15:40:00,58.0,54.5,29.68,ESE,121,0.0,0.0,88,0.00,,,0.00,Wunderground v.1.15,2013-05-28 20:40:00,
2013-05-28 15:45:00,58.1,54.6,29.68,ESE,121,0.0,0.0,88,0.00,,,0.00,Wunderground v.1.15,2013-05-28 20:45:00,
2013-05-28 15:55:00,58.6,55.1,29.68,ESE,121,0.0,0.0,88,0.00,,,0.00,Wunderground v.1.15,2013-05-28 20:55:00,
2013-05-28 16:05:00,58.9,55.0,29.67,East,90,0.0,4.0,87,0.00,,,0.00,Wunderground v.1.15,2013-05-28 21:05:00,
2013-05-28 16:10:00,58.9,55.0,29.67,East,97,1.0,1.0,87,0.00,,,0.00,Wunderground v.1.15,2013-05-28 21:10:00,
2013-05-28 16:20:00,59.3,54.8,29.66,East,97,0.0,2.0,85,0.00,,,0.00,Wunderground v.1.15,2013-05-28 21:20:00,
2013-05-28 16:30:00,59.8,55.0,29.66,East,93,1.0,1.0,84,0.00,,,0.00,Wunderground v.1.15,2013-05-28 21:30:00,
2013-05-28 16:40:00,60.9,55.4,29.66,NE,48,0.0,4.0,82,0.00,,,0.00,Wunderground v.1.15,2013-05-28 21:40:00,
2013-05-28 16:50:00,61.2,55.0,29.66,SE,138,1.0,1.0,80,0.00,,,0.00,Wunderground v.1.15,2013-05-28 21:50:00,
2013-05-28 17:00:00,61.2,55.0,29.66,SSE,168,1.0,7.0,80,0.00,,,0.00,Wunderground v.1.15,2013-05-28 22:00:00,
2013-05-28 17:10:00,60.7,55.2,29.66,SSE,165,3.0,3.0,82,0.00,,,0.00,Wunderground v.1.15,2013-05-28 22:10:00,
2013-05-28 17:15:00,60.9,55.4,29.67,SSE,165,1.0,3.0,82,0.00,,,0.00,Wunderground v.1.15,2013-05-28 22:15:00,
2013-05-28 17:25:00,61.0,55.5,29.67,South,191,1.0,1.0,82,0.00,,,0.00,Wunderground v.1.15,2013-05-28 22:25:00,
2013-05-28 17:35:00,60.5,55.0,29.67,SW,227,1.0,1.0,82,0.00,,,0.00,Wunderground v.1.15,2013-05-28 22:35:00,
2013-05-28 17:45:00,60.4,54.9,29.67,SW,226,0.0,1.0,82,0.00,,,0.00,Wunderground v.1.15,2013-05-28 22:45:00,
2013-05-28 17:55:00,60.7,55.5,29.67,SW,216,0.0,2.0,83,0.00,,,0.00,Wunderground v.1.15,2013-05-28 22:55:00,
2013-05-28 18:05:00,60.5,55.0,29.67,SSW,213,1.0,1.0,82,0.00,,,0.00,Wunderground v.1.15,2013-05-28 23:05:00,
2013-05-28 18:10:00,60.5,55.0,29.67,SSW,213,0.0,0.0,82,0.00,,,0.00,Wunderground v.1.15,2013-05-28 23:10:00,
2013-05-28 18:15:00,60.5,55.3,29.67,SSW,213,0.0,0.0,83,0.00,,,0.00,Wunderground v.1.15,2013-05-28 23:15:00,
2013-05-28 18:25:00,60.4,55.2,29.67,SSW,213,0.0,0.0,83,0.00,,,0.00,Wunderground v.1.15,2013-05-28 23:25:00,
2013-05-28 18:30:00,60.4,54.9,29.67,SSW,213,0.0,0.0,82,0.00,,,0.00,Wunderground v.1.15,2013-05-28 23:30:00,
2013-05-28 18:40:00,60.5,55.0,29.67,SSW,213,0.0,0.0,82,0.00,,,0.00,Wunderground v.1.15,2013-05-28 23:40:00,
2013-05-28 18:50:00,60.5,55.0,29.67,SSW,213,0.0,0.0,82,0.00,,,0.00,Wunderground v.1.15,2013-05-28 23:50:00,
2013-05-28 19:00:00,60.7,55.2,29.67,SSW,213,0.0,0.0,82,0.00,,,0.00,Wunderground v.1.15,2013-05-29 00:00:00,
2013-05-28 19:10:00,60.7,55.2,29.67,SSW,213,0.0,0.0,82,0.00,,,0.00,Wunderground v.1.15,2013-05-29 00:10:00,
2013-05-28 19:20:00,60.9,55.4,29.67,SSW,213,0.0,0.0,82,0.00,,,0.00,Wunderground v.1.15,2013-05-29 00:20:00,
2013-05-28 19:25:00,60.9,55.4,29.67,SSW,213,0.0,0.0,82,0.00,,,0.00,Wunderground v.1.15,2013-05-29 00:25:00,
2013-05-28 19:35:00,60.7,55.2,29.67,SSW,213,0.0,0.0,82,0.00,,,0.00,Wunderground v.1.15,2013-05-29 00:35:00,
2013-05-28 19:45:00,60.5,55.0,29.67,SSW,213,0.0,0.0,82,0.00,,,0.00,Wunderground v.1.15,2013-05-29 00:45:00,
2013-05-28 19:55:00,60.4,54.9,29.67,SSW,212,0.0,0.0,82,0.00,,,0.00,Wunderground v.1.15,2013-05-29 00:55:00,
2013-05-28 20:00:00,60.4,55.2,29.67,SSW,212,0.0,0.0,83,0.00,,,0.00,Wunderground v.1.15,2013-05-29 01:00:00,
2013-05-28 20:10:00,60.2,55.0,29.67,SSW,212,0.0,0.0,83,0.00,,,0.00,Wunderground v.1.15,2013-05-29 01:10:00,
2013-05-28 20:15:00,60.1,54.9,29.66,SSW,212,0.0,0.0,83,0.00,,,0.00,Wunderground v.1.15,2013-05-29 01:15:00,
2013-05-28 20:25:00,60.1,54.9,29.66,SSW,212,0.0,0.0,83,0.00,,,0.00,Wunderground v.1.15,2013-05-29 01:25:00,
2013-05-28 20:35:00,59.9,54.7,29.65,SSW,212,0.0,0.0,83,0.00,,,0.00,Wunderground v.1.15,2013-05-29 01:35:00,
2013-05-28 20:45:00,59.9,54.7,29.65,SSW,212,0.0,0.0,83,0.00,,,0.00,Wunderground v.1.15,2013-05-29 01:45:00,
2013-05-28 20:55:00,59.9,55.1,29.65,SSW,212,0.0,0.0,84,0.00,,,0.00,Wunderground v.1.15,2013-05-29 01:55:00,
2013-05-28 21:05:00,59.8,55.0,29.66,SSW,212,0.0,0.0,84,0.00,,,0.00,Wunderground v.1.15,2013-05-29 02:05:00,
2013-05-28 21:10:00,59.6,54.8,29.66,SSW,212,0.0,0.0,84,0.00,,,0.00,Wunderground v.1.15,2013-05-29 02:10:00,
2013-05-28 21:20:00,59.3,54.8,29.65,SSW,210,0.0,0.0,85,0.00,,,0.00,Wunderground v.1.15,2013-05-29 02:20:00,
2013-05-28 21:30:00,59.0,54.5,29.65,SSW,202,0.0,0.0,85,0.00,,,0.00,Wunderground v.1.15,2013-05-29 02:30:00,
2013-05-28 21:40:00,58.7,54.5,29.65,SSW,202,0.0,0.0,86,0.00,,,0.00,Wunderground v.1.15,2013-05-29 02:40:00,
2013-05-28 21:50:00,58.4,54.5,29.67,SSW,202,0.0,0.0,87,0.00,,,0.00,Wunderground v.1.15,2013-05-29 02:50:00,
2013-05-28 21:55:00,58.3,54.4,29.67,SSW,202,0.0,0.0,87,0.00,,,0.00,Wunderground v.1.15,2013-05-29 02:55:00,
2013-05-28 22:00:00,58.1,54.2,29.68,SSW,202,0.0,0.0,87,0.00,,,0.00,Wunderground v.1.15,2013-05-29 03:00:00,
2013-05-28 22:10:00,57.6,54.1,29.68,SSW,202,0.0,0.0,88,0.00,,,0.00,Wunderground v.1.15,2013-05-29 03:10:00,
2013-05-28 22:15:00,57.5,54.3,29.68,SSW,202,0.0,0.0,89,0.00,,,0.00,Wunderground v.1.15,2013-05-29 03:15:00,
2013-05-28 22:25:00,57.2,54.3,29.68,SSW,202,0.0,0.0,90,0.00,,,0.00,Wunderground v.1.15,2013-05-29 03:25:00,
2013-05-28 22:35:00,56.9,54.3,29.69,SSW,202,0.0,0.0,91,0.00,,,0.00,Wunderground v.1.15,2013-05-29 03:35:00,
2013-05-28 22:45:00,56.7,54.1,29.68,SSW,202,0.0,0.0,91,0.00,,,0.00,Wunderground v.1.15,2013-05-29 03:45:00,
2013-05-28 22:55:00,56.3,54.0,29.68,SSE,167,0.0,0.0,92,0.00,,,0.00,Wunderground v.1.15,2013-05-29 03:55:00,
2013-05-28 23:05:00,56.3,54.3,29.67,SE,141,0.0,0.0,93,0.00,,,0.00,Wunderground v.1.15,2013-05-29 04:05:00,
2013-05-28 23:10:00,56.2,54.2,29.67,ESE,117,0.0,0.0,93,0.00,,,0.00,Wunderground v.1.15,2013-05-29 04:10:00,
2013-05-28 23:15:00,56.2,54.2,29.67,ESE,117,0.0,0.0,93,0.00,,,0.00,Wunderground v.1.15,2013-05-29 04:15:00,
2013-05-28 23:20:00,56.0,54.3,29.67,ESE,117,0.0,0.0,94,0.00,,,0.00,Wunderground v.1.15,2013-05-29 04:20:00,
2013-05-28 23:30:00,55.9,54.2,29.68,ESE,117,0.0,0.0,94,0.00,,,0.00,Wunderground v.1.15,2013-05-29 04:30:00,
2013-05-28 23:40:00,55.9,54.5,29.68,SSE,167,2.0,2.0,95,0.00,,,0.00,Wunderground v.1.15,2013-05-29 04:40:00,
2013-05-28 23:45:00,55.9,54.5,29.71,SSE,164,2.0,2.0,95,0.00,,,0.00,Wunderground v.1.15,2013-05-29 04:45:00,
2013-05-28 23:50:00,56.0,54.6,29.71,SSE,162,2.0,2.0,95,0.00,,,0.00,Wunderground v.1.15,2013-05-29 04:50:00,